| time (UTC) | temp C | wind direction | speed KPH | gust KPH | rain 1hr cm | rain 24hr cm | rain mn cm | humidity % | barometer mb |
| 20260504050433 | 10 | 261 | 0.0 | 0.0 | 0.00 | 0.00 | 0.00 | 62 | 1006.9 |
| 20260504045930 | 10 | 214 | 1.6 | 1.6 | 0.00 | 0.00 | 0.00 | 61 | 1007.1 |
| 20260504045426 | 10 | 258 | 0.0 | 0.0 | 0.00 | 0.00 | 0.00 | 61 | 1006.9 |
| 20260504044922 | 10 | 248 | 1.6 | 1.6 | 0.00 | 0.00 | 0.00 | 61 | 1007.0 |
| 20260504044420 | 10 | 229 | 0.0 | 1.6 | 0.00 | 0.00 | 0.00 | 60 | 1006.7 |
| 20260504043917 | 10 | 240 | 0.0 | 1.6 | 0.00 | 0.00 | 0.00 | 60 | 1006.9 |
| 20260504043414 | 10 | 227 | 1.6 | 1.6 | 0.00 | 0.00 | 0.00 | 59 | 1007.0 |
| 20260504042912 | 10 | 244 | 0.0 | 1.6 | 0.00 | 0.00 | 0.00 | 59 | 1007.1 |
| 20260504042408 | 11 | 185 | 1.6 | 3.2 | 0.00 | 0.00 | 0.00 | 59 | 1007.0 |
| 20260504041904 | 11 | 268 | 1.6 | 1.6 | 0.00 | 0.00 | 0.00 | 58 | 1006.9 |
| 20260504041400 | 11 | 240 | 4.8 | 8.0 | 0.00 | 0.00 | 0.00 | 57 | 1007.2 |
| 20260504040856 | 11 | 230 | 3.2 | 4.8 | 0.00 | 0.00 | 0.00 | 57 | 1006.9 |
| 20260504040354 | 11 | 219 | 4.8 | 4.8 | 0.00 | 0.00 | 0.00 | 58 | 1007.1 |
| 20260504035850 | 11 | 208 | 4.8 | 8.0 | 0.00 | 0.00 | 0.00 | 57 | 1007.0 |
| 20260504035348 | 11 | 226 | 3.2 | 3.2 | 0.00 | 0.00 | 0.00 | 57 | 1007.0 |
| 20260504034844 | 11 | 258 | 3.2 | 4.8 | 0.00 | 0.00 | 0.00 | 56 | 1007.0 |
| 20260504034342 | 11 | 253 | 6.4 | 9.7 | 0.00 | 0.00 | 0.00 | 56 | 1006.9 |
| 20260504033838 | 12 | 253 | 1.6 | 1.6 | 0.00 | 0.00 | 0.00 | 56 | 1007.1 |
| 20260504033337 | 12 | 256 | 1.6 | 1.6 | 0.00 | 0.00 | 0.00 | 55 | 1006.7 |
| 20260504032833 | 12 | 261 | 1.6 | 1.6 | 0.00 | 0.00 | 0.00 | 55 | 1006.9 |
| 20260504032330 | 12 | 254 | 1.6 | 1.6 | 0.00 | 0.00 | 0.00 | 55 | 1007.0 |
| 20260504031827 | 12 | 259 | 3.2 | 3.2 | 0.00 | 0.00 | 0.00 | 54 | 1006.9 |
| 20260504031324 | 12 | 329 | 3.2 | 4.8 | 0.00 | 0.00 | 0.00 | 54 | 1006.9 |
| 20260504030820 | 12 | 250 | 3.2 | 3.2 | 0.00 | 0.00 | 0.00 | 54 | 1007.0 |
| 20260504030318 | 12 | 261 | 3.2 | 3.2 | 0.00 | 0.00 | 0.00 | 55 | 1007.1 |
| 20260504025814 | 12 | 223 | 4.8 | 4.8 | 0.00 | 0.00 | 0.00 | 55 | 1006.7 |
| 20260504025311 | 12 | 142 | 4.8 | 4.8 | 0.00 | 0.00 | 0.00 | 54 | 1006.7 |
| 20260504024808 | 12 | 258 | 3.2 | 4.8 | 0.00 | 0.00 | 0.00 | 55 | 1006.6 |
| 20260504024304 | 12 | 265 | 1.6 | 1.6 | 0.00 | 0.00 | 0.00 | 55 | 1007.0 |
| 20260504023801 | 12 | 308 | 6.4 | 9.7 | 0.00 | 0.00 | 0.00 | 55 | 1007.2 |
| 20260504023257 | 12 | 160 | 1.6 | 1.6 | 0.00 | 0.00 | 0.00 | 55 | 1007.2 |
| 20260504022753 | 12 | 206 | 9.7 | 12.9 | 0.00 | 0.00 | 0.00 | 54 | 1007.1 |
| 20260504022250 | 12 | 309 | 0.0 | 1.6 | 0.00 | 0.00 | 0.00 | 54 | 1007.3 |
| 20260504021747 | 12 | 218 | 1.6 | 3.2 | 0.00 | 0.00 | 0.00 | 54 | 1007.3 |
| 20260504021244 | 12 | 254 | 1.6 | 1.6 | 0.00 | 0.00 | 0.00 | 53 | 1007.4 |
| 20260504020741 | 12 | 296 | 6.4 | 8.0 | 0.00 | 0.00 | 0.00 | 53 | 1007.4 |
| 20260504020237 | 12 | 226 | 1.6 | 1.6 | 0.00 | 0.00 | 0.00 | 53 | 1007.3 |
| 20260504015733 | 12 | 258 | 1.6 | 1.6 | 0.00 | 0.00 | 0.00 | 54 | 1007.4 |
| 20260504015230 | 11 | 177 | 3.2 | 4.8 | 0.00 | 0.00 | 0.00 | 55 | 1007.5 |
| 20260504014726 | 11 | 260 | 0.0 | 0.0 | 0.00 | 0.00 | 0.00 | 56 | 1007.3 |
| 20260504014223 | 11 | 265 | 0.0 | 1.6 | 0.00 | 0.00 | 0.00 | 57 | 1007.3 |
| 20260504013721 | 11 | 277 | 0.0 | 1.6 | 0.00 | 0.00 | 0.00 | 59 | 1007.4 |
| 20260504013218 | 11 | 242 | 1.6 | 1.6 | 0.00 | 0.00 | 0.00 | 59 | 1007.3 |
| 20260504012714 | 11 | 265 | 1.6 | 1.6 | 0.00 | 0.00 | 0.00 | 58 | 1007.6 |
| 20260504012213 | 12 | 268 | 1.6 | 3.2 | 0.00 | 0.00 | 0.00 | 58 | 1007.8 |
| 20260504011709 | 11 | 261 | 0.0 | 1.6 | 0.00 | 0.00 | 0.00 | 56 | 1007.8 |
| 20260504011206 | 11 | 269 | 0.0 | 1.6 | 0.00 | 0.00 | 0.00 | 57 | 1007.5 |
| 20260504010702 | 11 | 257 | 3.2 | 4.8 | 0.00 | 0.00 | 0.00 | 58 | 1007.7 |
| 20260504010157 | 11 | 238 | 4.8 | 8.0 | 0.00 | 0.00 | 0.00 | 57 | 1007.6 |
| 20260504005654 | 11 | 255 | 1.6 | 3.2 | 0.00 | 0.00 | 0.00 | 58 | 1007.7 |
| 20260504005151 | 11 | 218 | 4.8 | 9.7 | 0.00 | 0.00 | 0.00 | 58 | 1007.6 |
| 20260504004649 | 12 | 266 | 1.6 | 3.2 | 0.00 | 0.00 | 0.00 | 59 | 1007.5 |
| 20260504004146 | 11 | 242 | 8.0 | 12.9 | 0.00 | 0.00 | 0.00 | 57 | 1007.9 |
| 20260504003642 | 11 | 308 | 8.0 | 16.1 | 0.00 | 0.00 | 0.00 | 58 | 1007.9 |
| 20260504003139 | 11 | 307 | 4.8 | 4.8 | 0.00 | 0.00 | 0.00 | 58 | 1008.3 |
| 20260504002636 | 11 | 229 | 3.2 | 4.8 | 0.00 | 0.00 | 0.00 | 57 | 1008.2 |
| 20260504002134 | 12 | 269 | 3.2 | 3.2 | 0.00 | 0.00 | 0.00 | 57 | 1008.0 |
| 20260504001631 | 12 | 269 | 3.2 | 4.8 | 0.00 | 0.00 | 0.00 | 55 | 1008.0 |
| 20260504001127 | 12 | 276 | 4.8 | 4.8 | 0.00 | 0.00 | 0.00 | 55 | 1007.9 |
| 20260504000625 | 12 | 294 | 16.1 | 35.4 | 0.00 | 0.00 | 0.00 | 54 | 1007.9 |
| 20260504000122 | 12 | 274 | 6.4 | 9.7 | 0.00 | 0.00 | 0.00 | 54 | 1007.8 |
| 20260503235620 | 12 | 310 | 4.8 | 9.7 | 0.00 | 0.00 | 0.00 | 54 | 1007.8 |
| 20260503235116 | 12 | 280 | 1.6 | 1.6 | 0.00 | 0.00 | 0.00 | 54 | 1007.8 |
| 20260503234614 | 12 | 352 | 4.8 | 8.0 | 0.00 | 0.00 | 0.00 | 53 | 1007.8 |
| 20260503234112 | 12 | 306 | 3.2 | 3.2 | 0.00 | 0.00 | 0.00 | 53 | 1007.5 |
| 20260503233609 | 12 | 274 | 4.8 | 9.7 | 0.00 | 0.00 | 0.00 | 55 | 1007.5 |
| 20260503233104 | 12 | 187 | 4.8 | 4.8 | 0.00 | 0.00 | 0.00 | 54 | 1007.8 |
| 20260503232602 | 12 | 340 | 4.8 | 8.0 | 0.00 | 0.00 | 0.00 | 52 | 1008.1 |
| 20260503232059 | 12 | 272 | 6.4 | 8.0 | 0.00 | 0.00 | 0.00 | 52 | 1007.9 |
| 20260503231557 | 12 | 309 | 8.0 | 12.9 | 0.00 | 0.00 | 0.00 | 51 | 1007.7 |
| 20260503231053 | 12 | 6 | 3.2 | 3.2 | 0.00 | 0.00 | 0.00 | 51 | 1007.3 |
| 20260503230549 | 13 | 302 | 4.8 | 4.8 | 0.00 | 0.00 | 0.00 | 52 | 1007.6 |
| 20260503230047 | 13 | 278 | 6.4 | 9.7 | 0.00 | 0.00 | 0.00 | 50 | 1007.7 |
| 20260503225544 | 13 | 92 | 11.3 | 14.5 | 0.00 | 0.00 | 0.00 | 50 | 1007.4 |
| 20260503225039 | 13 | 119 | 4.8 | 8.0 | 0.00 | 0.00 | 0.00 | 49 | 1007.2 |
| 20260503224537 | 13 | 258 | 1.6 | 3.2 | 0.00 | 0.00 | 0.00 | 48 | 1007.2 |
| 20260503224035 | 13 | 288 | 8.0 | 11.3 | 0.00 | 0.00 | 0.00 | 48 | 1007.4 |
| 20260503223533 | 13 | 326 | 3.2 | 8.0 | 0.00 | 0.00 | 0.00 | 46 | 1007.2 |
| 20260503223028 | 13 | 289 | 3.2 | 3.2 | 0.00 | 0.00 | 0.00 | 47 | 1007.1 |
| 20260503222526 | 13 | 261 | 3.2 | 3.2 | 0.00 | 0.00 | 0.00 | 44 | 1007.0 |
| 20260503222024 | 13 | 327 | 3.2 | 4.8 | 0.00 | 0.00 | 0.00 | 46 | 1007.1 |
| 20260503221522 | 13 | 118 | 3.2 | 3.2 | 0.00 | 0.00 | 0.00 | 45 | 1007.3 |
| 20260503221019 | 13 | 265 | 6.4 | 9.7 | 0.00 | 0.00 | 0.00 | 46 | 1007.6 |
| 20260503220515 | 13 | 304 | 1.6 | 3.2 | 0.00 | 0.00 | 0.00 | 47 | 1007.3 |
| 20260503220012 | 13 | 318 | 8.0 | 9.7 | 0.00 | 0.00 | 0.00 | 47 | 1007.2 |
| 20260503215509 | 13 | 280 | 1.6 | 1.6 | 0.00 | 0.00 | 0.00 | 46 | 1007.5 |
| 20260503215006 | 13 | 325 | 11.3 | 20.9 | 0.00 | 0.00 | 0.00 | 46 | 1007.1 |
| 20260503214504 | 13 | 265 | 1.6 | 3.2 | 0.00 | 0.00 | 0.00 | 47 | 1007.4 |
| 20260503214001 | 13 | 279 | 3.2 | 4.8 | 0.00 | 0.00 | 0.00 | 46 | 1007.4 |
| 20260503213459 | 13 | 239 | 3.2 | 3.2 | 0.00 | 0.00 | 0.00 | 45 | 1007.3 |
| 20260503212955 | 13 | 309 | 6.4 | 9.7 | 0.00 | 0.00 | 0.00 | 46 | 1007.3 |
| 20260503212453 | 14 | 301 | 3.2 | 3.2 | 0.00 | 0.00 | 0.00 | 49 | 1007.3 |
| 20260503211950 | 14 | 313 | 3.2 | 4.8 | 0.00 | 0.00 | 0.00 | 47 | 1007.2 |
| 20260503211447 | 13 | 307 | 4.8 | 4.8 | 0.00 | 0.00 | 0.00 | 45 | 1006.9 |
| 20260503210942 | 14 | 300 | 6.4 | 9.7 | 0.00 | 0.00 | 0.00 | 46 | 1007.2 |
| 20260503210439 | 14 | 340 | 3.2 | 8.0 | 0.00 | 0.00 | 0.00 | 47 | 1007.1 |
| 20260503205934 | 14 | 182 | 8.0 | 11.3 | 0.00 | 0.00 | 0.00 | 43 | 1007.1 |
| 20260503205431 | 15 | 214 | 6.4 | 11.3 | 0.00 | 0.00 | 0.00 | 45 | 1007.0 |
| 20260503204927 | 15 | 271 | 6.4 | 12.9 | 0.00 | 0.00 | 0.00 | 42 | 1007.2 |
| 20260503204425 | 15 | 140 | 8.0 | 12.9 | 0.00 | 0.00 | 0.00 | 42 | 1007.0 |
| 20260503203922 | 15 | 168 | 1.6 | 3.2 | 0.00 | 0.00 | 0.00 | 43 | 1007.1 |
| 20260503203419 | 15 | 313 | 8.0 | 12.9 | 0.00 | 0.00 | 0.00 | 46 | 1007.4 |
| 20260503202916 | 13 | 306 | 8.0 | 9.7 | 0.00 | 0.00 | 0.00 | 42 | 1007.5 |
| 20260503202414 | 13 | 281 | 1.6 | 3.2 | 0.00 | 0.00 | 0.00 | 44 | 1007.5 |
| 20260503201913 | 15 | 312 | 1.6 | 3.2 | 0.00 | 0.00 | 0.00 | 42 | 1007.6 |
| 20260503201409 | 15 | 265 | 1.6 | 3.2 | 0.00 | 0.00 | 0.00 | 45 | 1007.4 |
| 20260503200907 | 14 | 204 | 6.4 | 9.7 | 0.00 | 0.00 | 0.00 | 41 | 1007.6 |
| 20260503200403 | 15 | 7 | 4.8 | 11.3 | 0.00 | 0.00 | 0.00 | 40 | 1008.0 |
| 20260503195900 | 14 | 264 | 3.2 | 3.2 | 0.00 | 0.00 | 0.00 | 41 | 1007.8 |
| 20260503195356 | 13 | 234 | 6.4 | 9.7 | 0.00 | 0.00 | 0.00 | 43 | 1008.0 |
| 20260503194853 | 13 | 291 | 3.2 | 3.2 | 0.00 | 0.00 | 0.00 | 43 | 1008.2 |
| 20260503194349 | 13 | 263 | 3.2 | 4.8 | 0.00 | 0.00 | 0.00 | 43 | 1008.2 |
| 20260503193846 | 13 | 293 | 9.7 | 16.1 | 0.00 | 0.00 | 0.00 | 43 | 1008.2 |
| 20260503193341 | 13 | 305 | 4.8 | 4.8 | 0.00 | 0.00 | 0.00 | 47 | 1008.4 |
| 20260503192837 | 13 | 247 | 6.4 | 9.7 | 0.00 | 0.00 | 0.00 | 41 | 1008.3 |
| 20260503192333 | 13 | 305 | 3.2 | 3.2 | 0.00 | 0.00 | 0.00 | 46 | 1008.4 |
| 20260503191829 | 13 | 264 | 3.2 | 3.2 | 0.00 | 0.00 | 0.00 | 45 | 1008.4 |
| 20260503191327 | 14 | 165 | 3.2 | 3.2 | 0.00 | 0.00 | 0.00 | 41 | 1008.5 |
| 20260503190824 | 14 | 307 | 1.6 | 3.2 | 0.00 | 0.00 | 0.00 | 44 | 1008.7 |
| 20260503190321 | 13 | 274 | 3.2 | 3.2 | 0.00 | 0.00 | 0.00 | 44 | 1008.7 |
| 20260503185818 | 12 | 142 | 1.6 | 3.2 | 0.00 | 0.00 | 0.00 | 45 | 1009.0 |
| 20260503185313 | 12 | 285 | 3.2 | 4.8 | 0.00 | 0.00 | 0.00 | 45 | 1009.1 |
| 20260503184808 | 12 | 267 | 4.8 | 8.0 | 0.00 | 0.00 | 0.00 | 47 | 1009.0 |
| 20260503184305 | 13 | 208 | 3.2 | 4.8 | 0.00 | 0.00 | 0.00 | 46 | 1009.2 |
| 20260503183800 | 13 | 260 | 3.2 | 3.2 | 0.00 | 0.00 | 0.00 | 42 | 1009.3 |
| 20260503183258 | 13 | 166 | 6.4 | 8.0 | 0.00 | 0.00 | 0.00 | 43 | 1009.1 |
| 20260503182755 | 13 | 236 | 4.8 | 4.8 | 0.00 | 0.00 | 0.00 | 44 | 1009.4 |
| 20260503182254 | 12 | 335 | 4.8 | 9.7 | 0.00 | 0.00 | 0.00 | 43 | 1009.3 |
| 20260503181750 | 13 | 298 | 4.8 | 4.8 | 0.00 | 0.00 | 0.00 | 45 | 1009.2 |
| 20260503181247 | 13 | 314 | 6.4 | 8.0 | 0.00 | 0.00 | 0.00 | 41 | 1009.4 |
| 20260503180744 | 13 | 205 | 4.8 | 9.7 | 0.00 | 0.00 | 0.00 | 45 | 1009.6 |
| 20260503180242 | 11 | 278 | 3.2 | 3.2 | 0.00 | 0.00 | 0.00 | 45 | 1009.7 |
| 20260503175738 | 12 | 293 | 1.6 | 1.6 | 0.00 | 0.00 | 0.00 | 45 | 1009.7 |
| 20260503175237 | 12 | 316 | 9.7 | 12.9 | 0.00 | 0.00 | 0.00 | 46 | 1009.6 |
| 20260503174732 | 12 | 323 | 8.0 | 16.1 | 0.00 | 0.00 | 0.00 | 45 | 1009.6 |
| 20260503174230 | 12 | 287 | 6.4 | 8.0 | 0.00 | 0.00 | 0.00 | 44 | 1009.9 |
| 20260503173725 | 12 | 250 | 1.6 | 3.2 | 0.00 | 0.00 | 0.00 | 44 | 1009.7 |
| 20260503173221 | 12 | 278 | 3.2 | 3.2 | 0.00 | 0.00 | 0.00 | 48 | 1009.6 |
| 20260503172718 | 12 | 310 | 3.2 | 3.2 | 0.00 | 0.00 | 0.00 | 46 | 1009.8 |
| 20260503172215 | 12 | 309 | 1.6 | 3.2 | 0.00 | 0.00 | 0.00 | 44 | 1009.7 |
| 20260503171711 | 13 | 272 | 1.6 | 3.2 | 0.00 | 0.00 | 0.00 | 47 | 1009.8 |
| 20260503171209 | 13 | 198 | 3.2 | 3.2 | 0.00 | 0.00 | 0.00 | 50 | 1009.5 |
| 20260503170705 | 13 | 214 | 1.6 | 3.2 | 0.00 | 0.00 | 0.00 | 48 | 1009.9 |
| 20260503170202 | 12 | 298 | 6.4 | 9.7 | 0.00 | 0.00 | 0.00 | 48 | 1009.9 |
| 20260503160124 | 12 | 288 | 3.2 | 3.2 | 0.00 | 0.00 | 0.00 | 54 | 1010.4 |
| 20260503150554 | 11 | 240 | 1.6 | 1.6 | 0.00 | 0.00 | 0.00 | 53 | 1010.8 |
| 20260503130943 | 7 | 255 | 0.0 | 1.6 | 0.00 | 0.00 | 0.00 | 67 | 1012.0 |
| 20260503130441 | 7 | 298 | 4.8 | 4.8 | 0.00 | 0.00 | 0.00 | 68 | 1011.9 |
| 20260503110332 | 0 | 256 | 0.0 | 0.0 | 0.00 | 0.00 | 0.00 | 99 | 1012.0 |
| 20260503100258 | -2 | 253 | 0.0 | 0.0 | 0.00 | 0.00 | 0.00 | 99 | 1011.3 |
| 20260503090218 | -1 | 264 | 0.0 | 0.0 | 0.00 | 0.00 | 0.00 | 97 | 1011.3 |
| 20260503081145 | -1 | 266 | 0.0 | 0.0 | 0.00 | 0.00 | 0.00 | 96 | 1011.4 |
| 20260503080641 | -1 | 263 | 0.0 | 0.0 | 0.00 | 0.00 | 0.00 | 95 | 1011.5 |
| 20260503080138 | -1 | 264 | 0.0 | 0.0 | 0.00 | 0.00 | 0.00 | 95 | 1011.4 |
| 20260503072615 | 0 | 254 | 0.0 | 0.0 | 0.00 | 0.00 | 0.00 | 92 | 1011.4 |
| 20260503072112 | 0 | 263 | 0.0 | 0.0 | 0.00 | 0.00 | 0.00 | 91 | 1011.6 |
| 20260503071608 | 0 | 261 | 0.0 | 0.0 | 0.00 | 0.00 | 0.00 | 91 | 1011.5 |
| 20260503071105 | 1 | 264 | 0.0 | 0.0 | 0.00 | 0.00 | 0.00 | 90 | 1011.4 |
| 20260503070602 | 1 | 259 | 0.0 | 0.0 | 0.00 | 0.00 | 0.00 | 90 | 1011.5 |
| 20260503055020 | 3 | 262 | 0.0 | 0.0 | 0.00 | 0.00 | 0.00 | 83 | 1011.8 |
| 20260503054516 | 3 | 262 | 0.0 | 0.0 | 0.00 | 0.00 | 0.00 | 83 | 1011.7 |
| 20260503054014 | 3 | 256 | 0.0 | 0.0 | 0.00 | 0.00 | 0.00 | 82 | 1011.8 |